Date,TemperatureHighF,TemperatureAvgF,TemperatureLowF,DewpointHighF,DewpointAvgF,DewpointLowF,HumidityHigh,HumidityAvg,HumidityLow,PressureMaxIn,PressureMinIn,WindSpeedMaxMPH,WindSpeedAvgMPH,GustSpeedMaxMPH,PrecipitationSumIn
2012-1-2,39.9,32.5,21.6,25.0,9.7,-0.2,55,39,25,30.13,30.00,12,7,12,0.00
2012-1-3,30.2,21.9,16.9,8.4,3.0,-2.4,51,44,34,30.29,30.13,15,5,15,0.00
2012-1-4,50.0,29.9,12.4,28.9,9.1,2.5,67,45,19,30.27,30.06,11,3,11,0.00
2012-1-5,55.9,42.6,33.3,31.8,21.3,12.1,73,47,18,30.13,30.04,8,3,8,0.00
2012-1-6,63.5,43.7,26.1,33.8,22.8,15.6,73,48,18,30.09,29.96,8,2,8,0.00
2012-1-7,56.7,50.9,43.3,54.7,46.9,31.6,97,86,61,30.07,29.96,5,2,5,0.20
2012-1-8,56.5,53.2,48.4,55.1,52.4,48.1,99,97,92,30.14,30.06,6,2,6,0.17
2012-1-9,61.2,56.6,53.4,58.6,54.6,51.9,99,93,83,30.08,29.98,11,3,11,0.02
2012-1-10,58.3,54.3,51.8,55.7,53.0,51.3,98,95,87,30.01,29.78,11,2,11,0.13
2012-1-11,63.0,52.8,45.5,56.9,49.8,42.8,96,90,73,29.79,29.42,23,7,23,1.10
2012-1-12,50.0,41.3,24.8,44.2,35.8,8.0,95,82,44,29.79,29.50,27,7,27,0.15
2012-1-13,31.8,24.7,21.4,14.7,10.9,6.0,71,56,44,30.06,29.78,21,6,21,0.00
2012-1-14,48.7,35.0,21.6,23.9,13.5,5.4,66,45,24,30.14,29.93,24,4,24,0.00
2012-1-15,49.8,36.7,27.9,25.0,18.6,9.1,71,51,23,30.33,30.04,17,3,17,0.00
2012-1-16,50.4,42.2,26.8,27.0,19.6,11.6,74,44,28,30.36,30.17,19,7,19,0.00
2012-1-17,54.9,51.4,45.3,53.2,44.7,26.7,95,80,44,30.18,29.86,24,8,24,1.90
2012-1-18,45.0,33.7,26.8,41.6,24.1,17.5,88,69,49,30.06,29.95,20,5,20,0.01
2012-1-19,47.3,34.4,22.3,32.0,21.5,17.3,84,62,40,30.05,29.89,12,3,12,0.01
2012-1-20,52.2,45.2,39.2,50.5,41.4,28.5,96,87,55,30.01,29.88,13,3,13,0.48
2012-1-21,61.7,53.4,45.0,58.5,51.1,44.2,97,92,73,29.99,29.79,16,4,16,0.52
2012-1-22,56.8,50.4,45.0,50.5,46.9,44.2,97,88,78,30.07,29.96,24,7,24,0.01
2012-1-23,60.6,51.7,47.7,51.2,47.6,43.9,94,86,65,29.96,29.84,100,10,100,0.56
2012-1-24,51.3,51.3,51.3,49.3,49.3,49.3,93,93,93,29.96,29.96,2,2,2,0.56
2012-1-25,51.3,51.3,51.3,49.3,49.3,49.3,93,93,93,29.96,29.96,2,2,2,0.56
2012-1-26,62.4,58.2,51.3,57.5,54.0,46.9,96,86,67,29.98,29.58,101,10,101,0.44
2012-1-27,58.1,46.2,34.9,55.8,39.8,30.1,94,80,54,29.96,29.57,19,4,19,0.38
2012-1-28,54.1,39.3,27.1,41.1,28.0,11.3,92,68,40,30.20,29.94,17,3,17,0.00
2012-1-29,50.5,37.7,0.0,20.1,10.8,3.0,65,37,20,30.29,30.19,15,3,15,0.00
2012-1-30,60.3,42.8,26.4,26.6,16.0,11.0,68,39,20,30.33,30.21,13,3,13,0.00
2012-1-31,62.6,50.2,31.1,31.3,18.1,12.4,72,33,18,30.31,30.18,17,5,17,0.00
2012-2-1,55.4,52.6,50.0,52.3,45.7,29.2,98,80,40,30.20,30.03,15,5,15,1.00
2012-2-2,63.3,53.4,38.5,52.7,42.9,29.8,99,73,33,30.22,29.98,21,4,21,0.01
2012-2-3,62.1,47.5,31.6,39.7,29.5,18.9,92,58,22,30.32,30.21,18,5,18,0.00
2012-2-4,57.7,51.4,45.1,53.4,46.1,31.4,98,84,47,30.22,29.96,13,4,13,0.50
2012-2-5,60.1,52.9,40.3,54.8,48.2,36.1,98,85,61,30.08,29.96,12,3,12,0.01
2012-2-6,56.5,44.1,36.0,43.9,37.5,30.4,99,80,52,30.13,30.04,11,2,11,0.00
2012-2-7,56.1,41.1,29.1,37.0,28.9,22.1,92,66,30,30.13,30.04,13,3,13,0.00
2012-2-8,49.8,41.4,35.4,35.1,30.6,26.0,79,66,52,30.16,30.06,14,4,15,0.00
2012-2-9,53.2,39.1,30.4,29.2,25.6,21.0,80,61,32,30.19,30.06,14,3,14,0.00
2012-2-10,50.5,36.9,26.6,34.9,28.1,21.3,88,72,47,30.09,29.88,14,2,14,0.00
2012-2-11,39.0,28.1,17.8,31.5,13.8,-2.6,81,57,39,30.21,29.83,21,7,21,0.00
2012-2-12,36.5,24.1,14.9,8.2,1.6,-3.7,52,40,22,30.26,30.17,24,6,24,0.00
2012-2-13,48.4,33.2,15.4,22.0,11.5,3.8,66,45,21,30.19,29.98,17,2,17,0.00
2012-2-14,41.9,38.1,34.2,39.5,34.4,22.3,96,87,48,30.06,29.92,14,5,17,0.21
2012-2-15,69.6,50.7,32.7,42.9,34.3,20.0,95,63,20,30.15,30.01,15,4,15,0.00
2012-2-16,60.3,52.7,47.5,57.0,48.6,38.1,99,87,55,30.12,29.98,19,4,19,0.20
2012-2-17,63.0,49.3,38.7,44.3,38.2,27.5,99,70,29,30.10,29.99,12,4,12,0.00
2012-2-18,63.3,49.2,34.5,47.8,40.5,29.9,99,74,43,30.03,29.83,11,2,11,0.08
2012-2-19,48.0,42.4,32.9,47.8,41.5,31.0,99,97,92,29.94,29.65,14,4,14,0.67
2012-2-20,58.6,40.8,31.1,36.8,30.2,15.1,96,71,37,30.16,29.93,18,3,18,0.00
2012-2-21,57.0,47.6,39.2,43.0,34.9,23.2,80,62,51,30.14,29.92,27,9,27,0.00
2012-2-22,64.6,54.2,45.7,52.3,46.4,40.8,93,77,52,29.96,29.57,25,7,25,0.07
2012-2-23,74.7,64.7,53.1,58.1,53.1,47.4,93,69,43,29.65,29.49,33,9,33,0.04
2012-2-24,67.5,55.7,37.0,59.1,42.1,14.4,87,63,25,30.02,29.56,27,8,27,0.12
2012-2-25,51.6,39.4,29.7,23.0,15.7,4.1,70,43,21,30.22,30.01,23,5,23,0.00
2012-2-26,58.8,41.6,23.7,23.6,15.2,8.3,70,40,19,30.31,30.19,17,5,17,0.00
2012-2-27,67.5,52.9,43.5,45.5,36.6,21.9,79,56,36,30.33,30.21,14,4,14,0.00
2012-2-28,72.3,53.2,33.1,54.3,40.9,30.2,95,68,34,30.30,30.12,18,5,18,0.00
2012-2-29,67.5,61.3,55.6,61.3,58.2,54.2,99,90,76,30.13,29.84,23,9,23,0.05
2012-3-1,72.0,61.8,48.9,59.6,38.1,15.9,91,51,16,29.91,29.78,19,4,19,0.09
2012-3-2,71.4,62.5,48.2,64.7,57.2,36.1,99,84,61,29.84,29.59,27,9,27,0.47
2012-3-3,60.3,47.8,41.9,59.1,34.7,-3.2,98,66,11,29.82,29.59,24,5,24,0.58
2012-3-4,47.1,40.4,31.6,26.2,19.4,7.2,67,46,25,29.94,29.75,27,6,27,0.00
2012-3-5,50.0,43.4,29.3,27.3,18.7,7.2,57,39,26,30.37,29.86,27,7,27,0.00
2012-3-6,65.1,43.8,23.9,25.7,15.7,9.7,73,40,16,30.43,30.31,20,7,20,0.00
2012-3-7,63.0,54.3,46.4,47.7,39.5,17.4,81,60,31,30.43,30.27,25,10,25,0.00
2012-3-8,70.9,60.9,51.3,56.4,50.8,46.1,97,72,49,30.29,30.02,27,8,27,0.56
2012-3-9,55.0,47.6,37.6,54.2,37.1,23.0,99,71,34,30.28,30.05,25,6,25,0.28
2012-3-10,68.4,48.5,27.7,33.6,24.9,13.8,85,48,17,30.34,30.22,11,3,11,0.00
2012-3-11,66.4,54.3,38.3,43.8,34.7,21.3,67,50,39,30.40,30.22,22,8,22,0.00
2012-3-12,59.2,56.7,54.9,56.4,51.9,43.8,99,85,61,30.27,30.15,22,8,22,0.54
2012-3-13,77.4,65.0,55.9,62.0,54.4,43.5,99,74,35,30.18,30.05,17,4,17,0.05
2012-3-14,79.3,63.1,47.7,59.7,49.2,41.0,99,68,29,30.22,30.07,11,2,11,0.00
2012-3-15,79.7,63.3,48.7,60.5,52.6,46.3,97,72,41,30.26,30.07,18,3,18,0.46
2012-3-16,79.7,60.8,51.3,63.6,54.8,46.8,99,84,36,30.24,30.05,23,3,23,0.28
2012-3-17,76.3,62.4,55.8,62.4,58.1,54.9,99,88,55,30.23,30.07,8,2,8,0.61
2012-3-18,81.5,67.3,55.4,63.1,53.5,41.5,99,69,28,30.22,30.06,16,2,16,0.00
2012-3-19,83.5,67.0,51.6,59.2,52.2,46.9,95,64,33,30.16,30.01,11,2,11,0.00
2012-3-20,82.8,69.9,56.1,61.4,53.5,45.3,95,62,32,30.11,29.98,21,5,21,0.00
2012-3-21,77.4,69.2,61.7,58.0,54.1,49.6,82,61,42,30.15,30.06,27,8,27,0.00
2012-3-22,76.1,68.0,61.9,60.9,58.1,53.7,82,72,56,30.13,30.03,19,6,19,0.00
2012-3-23,69.1,65.3,61.0,63.7,60.0,56.1,90,83,69,30.06,29.85,22,7,22,0.06
2012-3-24,66.0,58.1,49.8,60.5,51.3,42.1,97,80,46,29.86,29.74,16,3,16,0.14
2012-3-25,70.7,57.5,47.7,49.9,46.9,42.0,97,72,41,29.89,29.77,17,4,17,0.01
2012-3-26,77.2,63.6,52.2,52.5,47.6,38.4,94,61,30,30.03,29.88,21,4,21,0.00
2012-3-27,77.9,62.4,45.5,52.4,43.1,31.1,99,58,22,30.15,30.01,17,5,17,0.00
2012-3-28,78.3,66.6,51.4,56.3,48.5,40.5,82,55,37,30.12,29.93,20,5,20,0.00
2012-3-29,80.1,69.3,60.8,56.8,52.8,49.6,75,58,39,29.97,29.85,13,3,13,0.00
2012-3-30,76.8,61.7,52.2,62.9,57.1,50.6,99,86,53,29.95,29.82,12,2,12,0.44
2012-3-31,76.6,64.6,59.2,61.6,58.5,53.4,99,83,49,29.85,29.08,13,2,13,0.02
2012-4-1,81.5,66.5,49.8,61.9,53.8,45.0,99,70,31,29.86,29.72,15,3,15,0.00
2012-4-2,84.4,72.7,62.8,64.4,59.4,53.5,88,66,40,29.86,29.74,13,3,13,0.00
2012-4-3,82.0,67.8,59.0,65.5,60.8,57.6,97,80,51,29.93,29.80,14,3,14,0.25
2012-4-4,80.6,66.4,54.0,67.4,56.2,50.8,99,75,40,29.88,29.64,14,2,14,0.01
2012-4-5,75.7,66.0,56.7,61.3,55.0,43.3,96,70,40,29.70,29.57,17,3,17,0.08
2012-4-6,69.3,58.2,49.3,55.4,46.3,36.0,99,71,35,30.01,29.67,19,6,19,0.01
2012-4-7,72.3,55.2,36.5,48.2,41.4,34.1,98,65,35,30.19,30.01,12,3,12,0.00
2012-4-8,75.0,58.7,41.0,50.2,42.1,33.9,98,61,27,30.14,30.00,17,4,17,0.00
2012-4-9,73.4,59.2,42.4,40.4,29.8,8.8,72,42,12,30.06,29.92,17,4,17,0.00
2012-4-10,68.9,57.7,46.6,45.9,34.1,26.4,65,44,30,30.00,29.88,17,4,17,0.00
2012-4-11,61.5,50.6,39.7,29.0,20.2,12.3,56,34,19,30.06,29.93,19,6,19,0.00
2012-4-12,66.6,47.2,27.7,31.9,24.6,17.9,82,48,19,30.16,30.00,13,3,14,0.00
2012-4-13,73.8,53.0,32.5,39.9,31.1,9.0,94,54,13,30.15,30.05,12,3,12,0.00
2012-4-14,77.0,63.1,46.0,44.7,40.2,32.8,73,46,31,30.21,30.05,21,7,21,0.00
2012-4-15,78.3,66.5,52.5,59.9,50.4,39.2,80,58,44,30.14,30.02,25,8,25,0.00
2012-4-16,74.7,67.3,57.9,62.8,59.5,56.4,99,78,61,30.14,30.03,23,8,23,0.09
2012-4-17,74.8,61.6,54.7,63.8,57.0,52.2,99,86,52,30.14,30.01,17,3,17,0.04
2012-4-18,61.7,56.3,53.6,60.7,55.5,52.8,99,97,92,30.03,29.96,8,2,8,0.69
2012-4-19,75.0,60.8,53.1,60.4,53.5,47.3,99,81,42,29.99,29.86,11,3,11,0.00
2012-4-20,70.0,60.5,50.7,58.4,54.6,48.5,97,82,61,29.92,29.76,15,4,15,0.00
2012-4-21,61.0,61.0,61.0,55.7,55.7,55.7,83,83,83,29.80,29.80,4,4,5,0.00
2012-4-22,61.0,56.1,42.3,55.7,46.6,33.2,83,72,47,29.80,29.61,21,6,21,0.15
2012-4-23,57.2,46.3,38.1,33.8,26.3,14.2,78,51,25,29.79,29.66,24,7,24,0.00
2012-4-24,61.7,50.6,42.1,47.2,34.9,23.7,97,58,32,29.85,29.75,21,4,21,0.04
2012-4-25,79.3,63.9,45.7,59.5,51.7,44.9,99,69,42,29.85,29.77,22,5,22,0.02
2012-4-26,78.3,68.1,63.5,65.3,58.8,53.9,98,74,55,29.89,29.78,17,6,17,0.08
2012-4-27,74.5,67.8,60.6,66.0,63.3,58.1,99,87,67,30.00,29.86,11,2,11,0.04
2012-4-28,82.8,70.2,56.1,66.2,57.6,49.7,99,70,35,30.05,29.94,17,5,17,0.00
2012-4-29,86.4,69.7,53.2,63.1,57.4,52.7,99,70,40,30.10,30.00,12,2,12,0.00
2012-4-30,87.4,71.4,54.7,64.3,56.0,45.2,99,66,27,30.12,30.00,18,3,18,0.00
2012-5-1,86.7,73.2,60.4,65.0,59.9,56.3,93,67,40,30.09,29.96,15,4,15,0.00
2012-5-2,88.2,76.6,67.1,65.2,60.6,53.6,81,61,34,30.11,29.98,12,4,12,0.00
2012-5-3,83.5,71.6,60.4,67.6,61.8,57.3,98,74,47,30.09,30.00,37,3,37,0.30
2012-5-4,82.6,69.6,61.7,68.2,63.3,60.1,99,83,49,30.06,29.93,11,2,11,0.12
2012-5-5,87.3,72.8,59.2,68.1,60.5,52.2,99,71,34,29.99,29.83,17,4,17,0.00
2012-5-6,88.2,73.1,58.1,65.7,58.3,48.5,99,67,30,29.97,29.84,17,4,17,0.00
2012-5-7,78.6,68.3,61.2,68.5,62.3,58.1,97,82,60,29.95,29.82,16,5,16,0.25
2012-5-8,81.1,70.8,64.2,64.1,61.7,56.6,96,76,48,29.88,29.76,16,4,16,0.00
2012-5-9,69.6,62.2,53.6,62.3,56.7,47.5,97,84,51,29.84,29.73,17,3,17,0.08
2012-5-10,72.1,59.8,48.6,48.9,42.6,35.8,83,58,31,29.93,29.79,19,4,19,2.94
2012-5-11,76.5,60.8,42.1,50.7,44.8,40.1,97,62,33,30.12,29.93,13,3,13,0.00
2012-5-12,74.1,63.4,52.0,60.1,55.2,49.2,93,76,54,30.22,30.09,27,6,27,0.00
2012-5-13,65.1,60.5,58.3,60.4,58.4,55.4,99,93,72,30.12,29.93,17,6,17,1.91
2012-5-14,74.5,65.7,60.3,67.4,62.9,59.9,99,91,69,29.94,29.85,15,4,15,0.34
2012-5-15,77.2,65.6,57.4,64.5,60.3,57.1,99,85,55,29.95,29.88,11,2,11,0.00
2012-5-16,79.7,66.0,52.2,63.4,55.1,50.3,99,74,39,29.96,29.85,13,3,13,0.01
2012-5-17,82.8,67.6,50.5,61.9,54.8,47.5,99,70,35,29.97,29.85,16,3,16,0.00
2012-5-18,79.0,64.9,54.9,65.4,59.0,54.0,99,83,50,30.04,29.96,13,2,13,0.83
2012-5-19,82.6,66.7,55.4,68.1,59.5,55.1,99,81,46,30.09,29.96,16,3,16,0.01
2012-5-20,83.3,69.0,55.8,64.9,59.0,53.8,99,75,40,30.10,29.96,14,3,14,0.00
2012-5-21,82.2,67.3,57.2,64.4,60.2,56.6,99,81,45,30.01,29.88,14,3,14,0.00
2012-5-22,74.5,64.4,56.8,64.0,59.8,54.6,99,86,59,29.93,29.80,14,3,14,0.01
2012-5-23,79.7,67.1,58.3,63.7,59.5,55.2,99,80,46,29.87,29.79,13,2,13,0.01
2012-5-24,84.2,70.0,54.7,65.9,56.0,48.0,99,68,33,29.97,29.84,14,3,14,0.00
2012-5-25,89.4,73.8,58.3,67.3,60.5,55.3,96,68,35,30.09,29.95,8,2,8,0.00
2012-5-26,90.9,76.2,62.1,69.7,63.8,59.5,98,71,39,30.13,30.01,14,3,14,0.00
2012-5-27,90.3,74.5,62.8,72.3,65.5,60.3,99,78,40,30.08,29.96,16,2,16,0.56
2012-5-28,87.3,75.2,62.1,69.4,63.8,59.3,99,73,43,30.01,29.88,18,4,18,0.01
2012-5-29,84.4,73.1,64.6,72.2,66.2,63.0,99,81,55,29.94,29.76,15,4,15,1.09
2012-5-30,86.4,73.7,63.3,68.7,60.4,48.0,99,70,31,29.86,29.78,13,3,13,0.15
2012-5-31,82.6,67.6,55.0,69.3,61.6,53.9,99,83,55,29.86,29.72,11,2,11,0.01
2012-6-1,74.3,66.2,55.8,65.7,60.6,50.6,99,84,55,29.85,29.70,17,5,17,0.22
2012-6-2,72.5,59.8,46.8,52.3,47.9,42.3,99,70,38,29.92,29.83,15,4,15,0.00
2012-6-3,82.9,66.8,49.3,64.1,55.0,46.1,99,71,35,29.97,29.82,14,3,14,0.00
2012-6-4,80.1,71.4,64.4,68.3,64.6,4.0,99,81,12,29.85,29.72,14,3,14,0.15
2012-6-5,77.4,67.1,59.4,65.6,59.6,52.1,99,80,45,29.81,29.70,17,3,17,0.28
2012-6-6,79.0,66.3,52.9,61.7,53.7,45.2,99,70,34,29.93,29.78,11,3,11,0.00
2012-6-7,81.3,67.1,53.6,60.8,55.3,48.4,99,71,39,30.01,29.90,11,3,11,0.00
2012-6-8,85.1,70.0,53.6,63.1,56.9,50.9,99,69,36,30.03,29.92,9,2,9,0.00
2012-6-9,81.9,72.8,62.6,63.4,60.0,54.6,94,67,44,30.04,29.92,14,4,14,0.00
2012-6-10,74.3,68.4,61.7,69.4,62.8,55.6,94,83,57,30.03,29.96,16,6,16,0.32
2012-6-11,79.0,70.2,66.4,72.4,67.7,64.7,99,92,75,30.01,29.91,14,5,14,0.28
2012-6-12,82.6,73.2,65.8,69.7,67.7,63.8,99,84,60,29.97,29.88,12,4,12,0.01
2012-6-13,87.1,74.1,62.2,68.9,63.8,59.0,99,74,46,29.96,29.88,13,3,14,0.00
2012-6-14,83.7,73.5,63.0,69.2,64.6,61.4,98,76,51,30.08,29.94,15,4,15,0.00
2012-6-15,85.3,72.6,60.6,68.0,63.0,57.8,95,74,50,30.15,30.02,14,4,14,0.01
2012-6-16,84.7,72.0,61.2,65.8,61.8,56.2,98,74,48,30.20,30.03,10,3,10,0.01
2012-6-17,82.8,73.2,63.1,63.8,59.8,56.1,85,65,46,30.11,29.95,12,4,12,0.00
2012-6-18,84.7,72.3,58.6,65.7,59.4,54.3,99,69,41,30.04,29.96,12,3,13,0.00
2012-6-19,87.6,74.1,59.7,66.3,60.6,57.6,99,68,41,30.14,30.04,10,3,10,0.00
2012-6-20,88.9,75.1,60.3,67.3,62.8,59.6,98,70,42,30.15,30.02,13,3,13,0.00
2012-6-21,90.3,76.5,62.8,69.6,65.0,59.8,99,72,40,30.08,29.88,11,2,11,0.00
2012-6-22,89.8,76.9,66.0,72.3,67.5,63.3,99,76,45,29.98,29.83,11,3,11,0.58
2012-6-23,90.5,77.6,63.9,70.9,65.6,60.6,99,72,40,29.95,29.87,11,2,11,0.00
2012-6-24,93.6,79.0,64.9,71.7,64.8,47.1,99,69,26,29.96,29.83,10,2,10,0.00
2012-6-25,92.1,79.7,66.2,71.4,64.7,58.6,99,66,37,29.88,29.69,16,4,16,0.00
2012-6-26,86.7,76.1,65.8,65.0,54.4,38.4,82,53,23,29.85,29.73,17,4,17,0.00
2012-6-27,88.5,71.8,53.2,57.8,50.7,43.5,88,53,26,30.00,29.84,11,2,11,0.00
2012-6-28,96.6,77.0,54.9,63.2,57.5,47.1,97,60,24,30.04,29.93,13,2,13,0.00
2012-6-29,101.3,83.6,64.2,67.7,60.6,50.0,89,53,23,29.98,29.84,12,3,12,0.00
2012-6-30,103.1,84.6,66.0,70.1,63.5,48.7,96,58,21,29.93,29.84,13,2,13,0.00
2012-7-1,102.0,85.2,68.0,72.9,66.1,58.6,93,60,29,30.01,29.88,101,3,101,0.00
2012-7-2,90.5,77.3,66.9,74.4,68.1,59.9,97,76,45,30.10,29.96,21,4,21,0.96
2012-7-3,92.3,78.2,66.9,71.4,66.6,63.2,94,71,45,30.06,29.91,17,3,17,0.01
2012-7-4,92.8,75.8,64.8,71.8,67.9,63.3,98,79,44,30.04,29.93,13,2,13,0.05
2012-7-5,96.3,79.1,65.8,75.0,66.4,57.4,99,71,35,30.01,29.90,34,4,34,0.01
2012-7-6,95.9,78.5,62.8,71.5,65.6,59.8,95,69,40,30.00,29.90,11,3,11,0.00
2012-7-7,95.2,80.9,67.6,73.1,69.0,64.5,99,72,41,30.03,29.93,12,3,12,0.00
2012-7-8,94.8,82.2,71.1,72.1,69.0,64.7,94,68,42,30.04,29.87,11,4,11,0.00
2012-7-9,90.0,79.4,69.1,75.8,69.3,63.8,96,74,47,29.97,29.87,20,3,20,0.04
2012-7-10,87.8,74.3,67.1,73.4,68.4,64.2,99,83,54,30.02,29.89,14,3,14,0.09
2012-7-11,81.9,72.4,68.4,71.9,69.2,64.7,99,91,61,30.04,29.95,11,2,11,0.06
2012-7-12,74.3,70.7,67.8,71.1,68.6,67.0,99,93,86,30.06,29.99,14,4,14,0.69
2012-7-13,87.1,74.6,67.1,75.2,69.4,65.1,99,86,52,30.12,30.01,15,4,15,0.31
2012-7-14,86.7,77.6,70.3,72.4,69.2,64.2,93,78,53,30.14,30.04,18,5,18,0.00
2012-7-15,86.2,76.0,68.5,75.2,70.8,66.3,98,85,63,30.18,30.04,13,3,13,0.13
2012-7-16,90.5,78.1,68.7,76.5,69.5,64.1,99,79,46,30.11,29.94,12,2,12,0.01
2012-7-17,91.6,77.7,68.7,74.0,69.7,64.2,99,79,45,30.01,29.90,13,2,13,0.00
2012-7-18,93.4,78.5,67.1,72.2,68.8,61.1,99,76,43,30.03,29.90,15,3,15,0.00
2012-7-19,92.3,78.1,67.3,72.7,68.7,62.3,99,77,42,30.06,28.42,12,3,12,0.00
2012-7-20,89.4,76.5,67.8,72.2,69.4,64.3,99,81,48,29.99,29.90,100,3,100,0.18
2012-7-21,83.5,73.5,68.2,74.4,70.3,67.1,99,90,71,30.08,29.94,16,2,16,0.24
2012-7-22,89.8,78.4,67.8,74.9,68.1,61.7,99,75,44,30.18,30.06,17,3,17,0.00
2012-7-23,92.1,78.6,65.7,73.4,68.7,46.0,99,76,27,30.19,30.05,99,2,99,6.27
2012-7-24,92.7,80.3,68.0,74.3,69.5,66.1,99,74,45,30.09,29.93,12,3,12,0.00
2012-7-25,93.9,81.0,68.4,75.2,70.0,65.7,99,73,43,29.99,29.89,10,2,10,0.00
2012-7-26,93.9,81.4,68.4,76.0,69.3,64.2,99,71,43,29.96,29.84,14,3,14,0.00
2012-7-27,93.4,81.6,72.3,74.5,69.3,63.7,93,70,43,29.95,29.85,13,3,13,0.00
2012-7-28,92.7,76.9,66.6,72.9,68.0,63.8,99,78,43,30.01,29.93,16,3,16,0.34
2012-7-29,88.2,74.3,60.4,72.6,64.1,59.6,99,76,42,30.02,29.93,14,3,14,0.01
2012-7-30,92.1,77.3,62.1,69.1,63.4,52.5,99,68,32,29.98,29.88,11,2,11,0.00
2012-7-31,87.8,77.3,71.2,73.4,69.7,66.4,96,79,57,29.93,29.83,12,3,12,0.18
2012-8-1,91.4,73.1,64.0,75.3,67.8,63.2,99,86,49,29.97,29.82,98,2,98,1.32
2012-8-2,92.5,75.3,60.4,73.6,67.6,60.2,99,81,49,29.92,29.83,10,2,10,0.01
2012-8-3,86.5,76.5,68.7,74.2,70.8,65.6,99,84,61,29.97,29.85,103,4,103,0.00
2012-8-4,85.6,76.3,69.6,73.7,69.9,67.5,95,82,63,30.10,29.96,21,5,21,0.00
2012-8-5,90.1,76.2,69.1,71.8,68.8,63.4,98,80,46,30.15,30.03,17,4,17,0.09
2012-8-6,88.3,74.8,66.2,73.6,69.6,65.5,99,86,49,30.09,29.94,11,2,11,0.01
2012-8-7,86.7,75.0,69.3,74.3,70.8,68.7,99,88,59,29.99,29.91,14,2,14,0.04
2012-8-8,90.3,76.9,67.3,76.6,69.3,64.7,99,81,46,30.01,29.90,8,2,8,0.01
2012-8-9,85.3,71.5,67.3,73.8,68.3,62.3,99,90,62,29.97,29.82,19,3,19,0.18
2012-8-10,82.6,71.6,66.2,75.4,68.7,65.9,99,91,67,29.88,29.76,8,3,8,1.00
2012-8-11,80.8,70.4,61.3,67.7,62.6,27.8,99,80,19,29.95,29.82,28,4,28,0.13
2012-8-12,82.2,67.9,52.9,62.6,56.7,50.9,99,73,37,30.02,29.93,12,3,12,0.00
2012-8-13,79.5,65.2,53.2,68.2,60.1,52.7,99,86,56,30.02,29.92,8,2,8,0.09
2012-8-14,84.4,70.5,59.5,70.6,65.1,59.3,99,85,56,29.96,29.83,11,2,11,0.01
2012-8-15,84.7,71.9,62.2,71.8,64.5,59.2,99,81,46,29.97,29.88,14,2,14,0.00
2012-8-16,87.1,72.2,58.6,68.7,61.5,52.0,99,75,38,30.03,29.90,13,2,13,0.00
2012-8-17,79.3,71.3,64.4,70.0,66.3,63.0,99,86,66,30.00,29.86,10,2,10,0.41
2012-8-18,83.1,72.0,63.0,69.4,65.4,62.1,99,82,54,29.92,29.80,8,2,8,0.00
2012-8-19,77.4,69.4,63.5,69.0,65.9,4.7,99,89,69,29.87,29.79,11,2,11,0.28
2012-8-20,81.9,68.6,56.7,65.1,56.8,48.4,99,72,37,29.95,29.85,12,2,12,0.00
2012-8-21,83.1,67.6,53.1,63.6,55.4,44.7,99,71,31,30.03,29.93,11,2,11,0.00
2012-8-22,85.1,68.6,53.1,63.6,54.6,47.0,99,69,31,30.09,29.99,11,2,11,0.00
2012-8-23,86.4,69.4,53.4,64.8,57.3,52.5,99,71,38,30.12,30.00,9,2,9,0.00
2012-8-24,88.9,69.9,57.4,68.1,61.5,56.5,99,79,41,30.12,29.99,18,2,18,0.00
2012-8-25,88.3,71.8,59.7,70.5,62.1,57.9,99,77,40,30.12,30.01,11,2,11,0.00
2012-8-26,89.6,74.1,60.3,68.9,62.3,57.9,99,72,38,30.16,30.01,10,2,10,0.00
2012-8-27,92.1,75.4,61.5,68.7,63.7,57.7,99,72,37,30.11,29.93,11,3,11,0.00
2012-8-28,81.9,71.9,64.6,72.2,67.5,62.4,97,87,65,30.00,29.89,9,2,9,0.01
2012-8-29,87.6,76.5,68.7,76.1,70.4,67.5,99,83,56,29.98,29.88,9,2,9,0.04
2012-8-30,82.8,75.9,70.3,72.8,69.9,67.2,92,82,67,30.12,29.94,12,4,12,0.00
2012-8-31,86.0,76.4,70.0,72.8,69.5,67.1,94,80,58,30.19,30.08,11,3,11,0.00
2012-9-1,89.8,76.5,66.9,73.6,69.5,65.7,99,81,49,30.16,30.01,11,2,11,0.00
2012-9-2,87.8,76.4,69.1,74.4,70.3,67.2,97,83,55,30.08,29.86,14,4,14,0.17
2012-9-3,77.9,71.4,68.5,71.8,69.0,67.1,99,92,76,29.95,29.85,15,5,15,0.31
2012-9-4,81.5,73.7,70.2,75.9,71.0,69.1,98,92,74,29.91,29.83,13,4,13,0.32
2012-9-5,85.3,75.7,70.2,71.6,69.8,67.5,98,83,61,29.93,29.83,12,4,12,0.00
2012-9-6,88.7,76.5,68.2,73.4,68.6,62.6,99,80,46,29.96,29.85,12,2,12,0.00
2012-9-7,89.4,74.6,62.6,74.5,66.1,61.7,99,79,43,29.97,29.79,10,2,10,0.00
2012-9-8,79.3,69.8,60.8,72.3,65.9,58.1,98,88,69,29.87,29.74,14,4,14,0.02
2012-9-9,77.2,63.4,50.9,58.3,53.7,49.1,99,76,41,30.01,29.83,17,3,17,0.01
2012-9-10,81.7,63.6,48.2,61.7,53.6,47.9,99,75,38,30.09,29.98,11,2,11,0.00
2012-9-11,81.5,65.7,52.7,62.4,55.3,50.1,99,74,38,30.20,30.07,17,3,17,0.00
2012-9-12,79.7,66.4,54.1,65.1,56.4,53.0,99,75,43,30.27,30.14,13,2,13,0.00
2012-9-13,80.1,65.6,54.7,62.4,55.0,46.6,99,73,35,30.27,30.13,13,2,13,0.00
2012-9-14,80.1,65.9,55.4,61.5,57.6,54.0,99,78,48,30.22,30.10,8,2,8,0.00
2012-9-15,84.9,67.2,54.5,66.5,58.2,53.7,99,78,42,30.16,30.01,8,2,8,0.00
2012-9-16,80.6,69.1,60.3,65.9,61.3,58.5,98,79,50,30.07,29.94,9,2,9,0.00
2012-9-17,78.1,70.3,64.8,68.6,65.6,63.0,99,86,67,30.02,29.73,20,6,20,0.00
2012-9-18,73.4,66.4,55.2,69.0,63.9,51.3,99,92,74,29.90,29.65,24,5,24,0.01
2012-9-19,76.3,60.8,50.9,58.6,54.2,50.3,99,81,53,30.03,29.90,14,3,14,0.00
2012-9-20,78.1,62.9,50.0,64.8,56.0,49.7,99,82,46,30.07,29.94,14,3,14,0.00
2012-9-21,81.5,65.7,52.7,66.1,56.7,47.5,99,78,35,30.03,29.89,14,3,14,0.00
2012-9-22,82.8,69.7,57.0,63.5,57.5,46.9,94,68,49,30.01,29.88,16,4,16,0.00
2012-9-23,74.3,59.2,45.5,55.0,41.9,23.1,99,62,19,30.11,30.01,11,2,11,0.00
2012-9-24,74.7,57.0,37.8,46.3,41.0,34.8,95,61,28,30.16,30.02,11,2,11,0.00
2012-9-25,79.9,61.4,44.6,57.7,50.7,43.8,99,73,39,30.11,30.06,12,4,12,0.00
2012-9-26,82.6,67.3,52.0,60.5,56.4,51.4,99,72,44,30.11,30.11,10,3,10,8.78
2012-9-27,83.7,66.6,52.7,64.7,58.1,52.2,99,79,44,30.11,30.11,13,2,13,0.00
2012-9-28,80.8,70.2,56.7,68.2,60.6,56.4,99,76,53,30.11,30.11,9,3,9,0.00
2012-9-29,79.9,76.1,58.5,64.3,61.2,54.1,88,62,55,30.11,30.11,100,4,100,0.70
2012-9-30,73.2,61.2,49.3,63.3,56.9,49.0,99,87,56,30.11,30.11,10,2,10,0.12
2012-10-1,68.5,65.2,61.9,67.1,64.1,61.0,99,96,92,30.11,30.11,24,8,24,1.75
2012-10-2,68.4,65.2,62.1,66.6,62.5,58.9,99,91,77,30.11,30.11,17,6,17,0.07
2012-10-3,73.8,63.6,57.6,62.7,59.1,53.8,99,87,53,30.11,30.11,8,2,8,0.01
2012-10-4,77.5,62.4,53.8,66.0,56.1,52.9,99,83,48,30.11,30.11,14,2,14,0.01
2012-10-5,79.7,61.9,49.8,66.2,55.4,49.6,99,83,45,30.11,30.11,8,2,8,0.01
2012-10-6,71.4,57.3,50.9,63.4,54.9,48.5,99,92,72,30.11,30.11,13,3,13,0.00
2012-10-7,55.4,50.1,44.6,51.8,47.1,40.6,99,90,69,30.11,30.11,14,4,14,0.17
2012-10-8,49.8,47.0,44.8,49.4,46.3,42.7,99,97,91,30.11,30.11,12,2,12,0.17
2012-10-9,64.6,51.8,45.5,52.9,47.7,44.5,99,88,56,30.11,30.11,8,2,8,0.00
2012-10-10,68.0,51.8,40.1,56.5,48.5,39.8,99,90,63,30.11,30.11,13,3,13,0.01
2012-10-11,73.0,53.6,38.3,52.0,44.4,36.6,99,77,33,30.11,30.11,8,2,8,0.00
2012-10-12,68.5,58.4,53.1,63.1,55.7,49.3,99,91,74,30.11,30.11,11,2,11,0.11
2012-10-13,73.2,61.0,51.6,60.2,52.2,49.0,99,77,49,30.11,30.11,19,5,19,0.01
2012-10-14,70.5,63.1,57.2,62.1,56.7,49.7,90,80,70,30.11,30.11,18,7,18,0.00
2012-10-15,71.8,61.9,48.9,62.6,53.2,41.9,99,77,40,30.11,30.11,17,3,17,1.64
2012-10-16,70.5,53.3,40.1,51.9,42.7,32.7,99,74,29,30.11,30.11,11,2,11,0.00
2012-10-17,72.7,56.5,40.5,51.0,43.9,37.2,99,69,31,30.11,30.11,19,4,19,0.00
2012-10-18,69.6,59.5,52.5,60.5,53.0,39.0,97,80,53,30.11,30.11,24,7,24,0.14
2012-10-19,67.8,55.3,40.5,43.8,34.5,15.1,90,52,18,30.11,30.11,26,4,26,0.00
2012-10-20,63.0,53.5,42.4,45.9,42.2,37.5,92,68,48,30.11,30.11,14,3,14,0.00
2012-10-21,73.6,53.4,36.3,50.5,43.6,35.6,99,76,32,30.11,30.11,8,2,8,0.00
2012-10-22,80.1,58.7,42.6,55.1,48.5,42.3,99,75,36,30.11,30.11,7,2,7,0.00
2012-10-23,79.9,61.2,47.1,57.6,50.5,43.3,99,74,32,30.11,30.11,9,2,9,0.00
2012-10-24,81.0,61.3,44.8,57.8,49.0,41.1,99,72,28,30.11,30.11,7,2,7,0.00
2012-10-25,78.6,60.7,45.3,60.0,51.7,44.5,99,76,41,30.11,30.11,14,3,14,0.00
2012-10-26,79.3,63.1,51.3,63.2,55.7,50.9,99,80,42,30.11,30.11,10,2,10,0.00
2012-10-27,59.2,52.6,47.3,57.6,51.3,46.6,99,95,89,30.11,30.11,20,5,20,0.00
2012-10-28,47.3,44.9,41.0,47.0,44.3,39.8,99,98,94,30.11,30.11,21,6,21,0.54
2012-10-29,45.3,42.0,38.7,40.2,34.3,20.0,99,76,42,30.11,30.11,101,6,101,0.05
2012-10-30,46.4,42.5,37.2,30.7,25.6,18.4,69,53,36,30.11,30.11,23,6,23,0.00
2012-10-31,58.1,46.6,36.7,26.9,21.3,13.9,59,40,22,30.11,30.11,17,5,17,0.00
2012-11-1,58.1,45.9,35.6,30.0,19.7,-16.8,66,40,20,30.11,30.11,17,3,17,0.00
2012-11-2,70.5,55.8,41.0,44.7,35.0,21.6,69,48,33,30.11,30.11,16,3,16,0.00
2012-11-3,76.5,56.1,34.9,55.9,41.7,29.8,89,62,33,30.11,30.11,9,2,9,0.00
2012-11-4,63.9,55.7,42.6,56.0,47.6,36.7,92,75,52,30.11,30.11,14,3,14,0.00
2012-11-5,62.1,47.0,34.7,40.7,32.9,19.6,97,64,24,30.11,30.11,10,2,10,0.00
2012-11-6,50.9,45.3,41.5,43.8,41.4,37.2,99,87,66,30.11,30.11,13,2,13,0.39
2012-11-7,47.5,43.0,40.5,45.8,42.3,40.2,99,97,88,30.11,30.11,9,2,9,0.26
2012-11-8,58.5,44.4,35.1,42.8,36.6,31.6,99,78,42,30.11,30.11,16,3,16,0.01
2012-11-9,68.9,45.8,27.9,43.1,33.4,25.7,97,69,23,30.11,30.11,7,1,7,0.00
2012-11-10,72.9,51.4,31.6,44.0,34.0,22.4,99,61,19,30.11,30.11,8,2,8,0.00
2012-11-11,66.6,58.5,49.1,52.3,42.8,31.9,71,57,43,30.11,30.11,25,9,25,0.00
2012-11-12,64.0,56.7,39.7,59.1,51.9,39.4,99,85,71,30.11,30.11,28,8,28,0.53
2012-11-13,52.0,39.4,30.4,39.5,30.7,25.4,99,73,42,30.11,30.11,19,6,19,0.00
2012-11-14,53.8,39.3,25.9,39.6,31.6,23.4,97,77,43,30.11,30.11,12,2,12,0.00
2012-11-15,60.3,46.9,38.1,41.0,37.4,33.8,92,72,44,30.11,30.11,14,2,14,0.00
2012-11-16,60.4,42.4,27.1,41.8,32.9,24.9,98,73,38,30.11,30.11,14,2,14,0.00
2012-11-17,62.6,43.5,27.5,38.2,30.9,24.7,95,66,31,30.11,30.11,13,2,13,0.00
2012-11-18,66.0,45.3,28.2,37.1,29.8,18.8,93,62,23,30.11,30.11,8,2,8,0.00
2012-11-19,65.7,46.4,30.7,43.8,35.6,27.7,96,70,36,30.11,30.11,8,2,8,0.00
2012-11-20,66.6,49.6,37.0,45.0,39.2,33.4,97,72,40,30.11,30.11,9,2,9,0.00
2012-11-21,68.2,51.5,36.1,47.0,40.8,34.8,99,71,41,30.11,30.11,14,3,14,0.00
2012-11-22,68.9,50.2,34.7,47.1,39.2,33.4,99,71,34,30.11,30.11,8,2,8,0.00
2012-11-23,68.0,45.7,33.3,51.2,40.3,32.2,99,83,45,30.11,30.11,14,2,14,0.02
2012-11-24,45.1,35.3,26.1,32.2,21.4,12.2,76,59,30,30.11,30.11,16,4,16,0.00
2012-11-25,59.0,37.9,20.5,26.1,14.2,4.1,82,47,18,30.11,30.11,8,2,8,0.00
2012-11-26,66.9,46.3,26.2,41.9,22.3,14.2,82,46,17,30.11,30.11,15,3,15,0.02
2012-11-27,50.7,45.4,38.7,48.3,43.5,13.9,99,94,69,30.11,30.11,14,4,14,0.19
2012-11-28,54.1,40.3,30.4,38.2,31.6,19.8,99,75,30,30.11,30.11,50,4,50,12.25
2012-11-29,61.3,41.3,24.6,38.5,27.4,20.5,94,64,25,30.11,30.11,13,2,13,0.00
2012-11-30,60.8,42.3,28.0,46.3,36.5,25.5,98,82,55,30.11,30.11,12,2,12,0.00
2012-12-1,65.5,50.0,34.5,51.4,42.3,34.0,99,78,51,30.11,30.11,14,3,14,0.00
2012-12-2,68.0,56.2,45.5,53.8,48.1,42.2,98,76,53,30.11,30.11,16,4,16,0.00
2012-12-3,71.4,54.3,38.1,52.1,46.2,37.9,99,78,45,30.11,30.11,13,2,13,0.00
2012-12-4,68.2,59.0,47.5,52.8,49.3,43.0,95,72,53,30.11,30.11,14,4,14,0.00
2012-12-5,60.3,54.7,47.3,57.1,51.9,46.3,99,91,72,30.11,30.11,12,3,12,0.14
2012-12-6,58.5,52.4,46.8,50.8,42.1,34.5,99,71,50,30.11,30.11,14,4,14,0.00
2012-12-7,65.5,55.1,48.4,53.9,48.8,43.0,89,80,66,30.11,30.11,12,3,12,0.00
2012-12-8,64.4,58.1,54.1,57.1,53.2,49.0,94,84,72,30.11,30.11,14,4,14,0.02
2012-12-9,65.1,59.6,57.4,57.5,55.7,53.4,95,87,72,30.11,30.11,17,5,17,0.01
2012-12-10,59.4,54.8,40.8,58.8,53.2,39.4,99,95,82,30.11,30.11,24,5,24,0.93
2012-12-11,40.8,34.6,31.5,39.5,31.3,27.7,95,88,79,30.11,30.11,15,4,15,0.00
2012-12-12,50.2,36.4,30.0,39.6,31.9,28.2,97,84,62,30.11,30.11,9,2,9,1.41
2012-12-13,56.8,39.5,27.9,40.3,32.3,24.8,93,78,46,30.11,30.11,100,2,100,12.80
2012-12-14,60.4,41.3,26.2,38.7,32.0,22.8,93,73,40,30.11,30.11,8,2,8,0.00
2012-12-15,58.6,47.1,35.6,43.1,37.1,31.0,92,70,51,30.11,30.11,13,6,13,0.00
2012-12-16,55.6,53.0,51.1,54.2,50.4,43.1,97,91,71,30.11,30.11,15,4,15,1.07
2012-12-17,57.2,53.2,50.2,55.6,50.7,2.2,96,91,78,30.11,30.11,11,4,11,0.04
2012-12-18,55.8,47.5,38.8,47.0,34.8,8.7,83,64,31,30.11,30.11,14,4,14,0.00
2012-12-19,65.3,48.4,30.0,53.5,36.4,25.3,97,66,42,30.11,30.11,101,5,101,13.36
2012-12-20,55.2,47.8,37.0,49.2,39.0,22.6,95,73,45,30.11,30.11,28,10,28,1.31
2012-12-21,41.5,33.8,29.5,23.3,17.1,9.3,61,51,39,30.11,29.94,26,10,26,0.00
2012-12-22,47.8,32.8,23.5,14.5,9.2,3.8,56,40,21,29.94,29.94,13,3,13,0.00
2012-12-23,53.6,37.2,20.3,31.8,20.2,10.9,74,54,32,29.94,29.94,12,3,12,0.04
2012-12-24,50.0,46.7,40.6,48.2,44.1,30.3,95,91,59,29.94,29.94,15,4,15,0.93
2012-12-25,52.5,47.4,41.0,49.0,44.6,40.0,97,90,80,29.94,29.94,25,4,25,0.52
2012-12-26,53.6,41.1,30.7,49.9,36.5,25.2,92,84,73,29.94,29.94,28,8,28,0.73
2012-12-27,35.1,30.8,27.0,26.5,25.2,21.6,85,79,70,29.94,29.94,16,4,16,0.00
2012-12-28,47.5,36.1,25.5,37.6,30.2,21.1,89,80,64,29.94,29.94,23,2,23,0.31
2012-12-29,39.4,34.9,29.8,37.4,30.7,22.1,94,85,71,29.94,29.94,19,5,19,0.12
2012-12-30,41.7,30.6,24.8,22.9,18.7,15.2,75,62,42,29.94,29.94,17,4,17,0.00
2012-12-31,52.3,36.5,23.0,30.5,20.6,13.6,82,57,28,29.94,29.94,11,3,11,0.00
2013-1-1,50.0,46.6,44.1,47.9,42.6,27.9,95,87,53,29.94,29.94,15,3,15,0.94